Weather in Bắc Ninh

Vietnam     21°10′59″N   106°04′11″E
temp.,
°C
wind,
m/s
gust,
m/s
humid.,
%
clouds,
%
prec.,
mm/h
press.,
hPa
HPBL,
m
27 november, sat
sat2701:00+19nne236523 0.0 102049
04:00+18n36705 0.0 1019113
07:00+18n36715 0.0 1021152
10:00+23nne44440 0.0 1022853
13:00+26ne22378 0.0 10181502
16:00+26ese22395 0.0 10171571
19:00+23s23500 0.0 101928
22:00+20e11621 0.0 102111
28 november, sun
sun2801:00+18n35649 0.0 102087
04:00+17nne36645 0.0 1020127
07:00+17n35675 0.0 1022141
10:00+23nne334688 0.0 1022680
13:00+25n2240100 0.0 10181200
16:00+26nne1139100 0.0 10161172
19:00+23sw114945 0.0 101811
22:00+20se346426 0.0 102065
29 november, mon
mon2901:00+19n116893 0.0 101911
04:00+18n3469100 0.0 101872
07:00+19n3466100 0.0 1019152
10:00+21nnw3458100 0.0 1020317
13:00+23nnw2351100 0.0 1017481
16:00+24ese0149100 0.0 1015332
19:00+22sw015641 0.0 101811
22:00+21n226316 0.0 102028
30 november, tue
tue3001:00+21n4963100 0.0 1019296
04:00+21nne51061100 0.0 1019546
07:00+20nne71258100 0.0 1022948
10:00+20nne71256100 0.0 10241026
13:00+22nne5951100 0.0 10201208
16:00+23ne365260 0.0 1019404
19:00+20ne395862 0.0 1022263
22:00+19nne5115861 0.0 1023514
1 december, wed
wed101:00+17n41061100 0.0 1023345
04:00+16n4864100 0.0 1022223
07:00+16n4863100 0.0 1024262
10:00+21nne6833100 0.0 10251180
13:00+24nne5628100 0.0 10201624
16:00+24ene4531100 0.0 10191524
19:00+19ne4104161 0.0 1021219
22:00+17n115898 0.0 102315